Home   Weather   Derby   Past weeks

Flag for United Kingdom Past Weather in Derby, England, United Kingdom — Yesterday and Last 2 Weeks

Now
30 °F

Ice fog.


Feels Like: 24 °F
Forecast: 29 / 41 °F
Wind: 6 mph from Northeast

Location: East Midlands

Current Time: Jan 21, 2017 at 4:27:12 am

Latest Report: Jan 21, 2017 at 3:50 am


Visibility: 0 mi

Pressure: 30.45 "Hg

Humidity: 100%

Dew Point: 30 °F

Location of DerbyLocation

Past Weather in Derby — Graph

°F

Derby Temperature Yesterday

Maximum temperature yesterday: 41 °F (at 12:50 am)
Minimum temperature yesterday: 32 °F (at 4:50 am)
Average temperature yesterday: 36 °F

High & Low Weather Summary for the Past Weeks

 TemperatureHumidityPressure
High52 °F (Jan 11, 5:20 am)100% (Jan 6, 5:20 pm)30.66 "Hg (Jan 6, 5:20 pm)
Low30 °F (Jan 21, 1:20 am)57% (Jan 11, 3:50 pm)29.42 "Hg (Jan 12, 4:50 pm)
Average41 °F91%30.22 "Hg
* Reported Jan 6 2:20 am — Jan 21 2:50 am, Derby, Weather by CustomWeather, © 2017

Note: Actual official high and low records may vary slightly from our data, if they occured in-between our weather recording intervals... More about our weather records

Advertising

Derby Weather History for the Previous 24 Hours

Scroll right to see more
 ConditionsComfort  
Time TempWeatherWind HumidityBarometerVisibility
2:50 am
Sat, Jan 21
30 °FIce fog.3 mph100%30.45 "Hg0 mi
2:20 am30 °FIce fog.7 mph100%30.45 "Hg0 mi
1:50 am30 °FIce fog.5 mph100%30.48 "Hg0 mi
1:20 am30 °FIce fog.5 mph100%30.48 "Hg0 mi
12:50 am32 °FIce fog.7 mph100%30.48 "Hg0 mi
11:50 pm
Fri, Jan 20
32 °FFog.6 mph100%30.48 "Hg0 mi
11:20 pm32 °FClear.3 mph100%30.48 "Hg5 mi
10:50 pm34 °FClear.6 mph93%30.48 "Hg5 mi
10:20 pm34 °FClear.7 mph100%30.48 "Hg6 mi
9:50 pm34 °FClear.7 mph93%30.51 "Hg4 mi
9:20 pm32 °FClear.7 mph100%30.51 "Hg4 mi
8:50 pm34 °FClear.7 mph93%30.51 "Hg4 mi
8:20 pm34 °FClear.7 mph100%30.51 "Hg4 mi
7:50 pm34 °FClear.6 mph93%30.51 "Hg5 mi
7:20 pm34 °FClear.5 mph93%30.51 "Hg10 mi
6:50 pm36 °FClear.6 mph87%30.51 "Hg10 mi
6:20 pm36 °FClear.7 mph81%30.51 "Hg10 mi
5:50 pm36 °FClear.6 mph87%30.51 "Hg10 mi
5:20 pm37 °FClear.8 mph81%30.51 "Hg10 mi
4:50 pm37 °FClear.8 mph81%30.51 "Hg10 mi
3:50 pm39 °FSunny.8 mph81%30.51 "Hg10 mi
3:20 pm41 °FSunny.8 mph81%30.51 "Hg10 mi
2:50 pm41 °FSunny.8 mph81%30.51 "Hg10 mi
2:20 pm41 °FSunny.8 mph81%30.51 "Hg10 mi
1:50 pm41 °FSunny.7 mph76%30.51 "Hg10 mi
1:20 pm41 °FSunny.7 mph76%30.54 "Hg10 mi
12:50 pm41 °FClear.6 mph76%30.54 "Hg6 mi
12:20 pm39 °FClear.7 mph81%30.57 "Hg6 mi
11:50 am39 °FClear.5 mph81%30.57 "Hg6 mi
11:20 am37 °FFog.6 mph87%30.57 "Hg6 mi
10:50 am37 °FFog.3 mph93%30.57 "Hg6 mi
10:20 am34 °FFog.3 mph100%30.57 "Hg5 mi
9:50 am32 °FFog.2 mph100%30.57 "Hg4 mi
9:20 am32 °FFog.2 mph100%30.57 "Hg4 mi
8:50 am32 °FFog.3 mph100%30.57 "Hg4 mi
8:20 am32 °FFog.6 mph100%30.57 "Hg4 mi
7:50 am32 °FFog.6 mph100%30.57 "Hg4 mi
7:20 am32 °FIce fog.6 mph100%30.57 "Hg3 mi
6:50 am32 °FClear.3 mph100%30.57 "Hg5 mi
6:20 am32 °FClear.5 mph100%30.57 "Hg5 mi
5:50 am32 °FFog.5 mph100%30.57 "Hg4 mi
5:20 am32 °FLight fog.3 mph100%30.57 "Hg1 mi
4:50 am32 °FFog.5 mph100%30.57 "Hg0 mi
4:20 am34 °FFog.3 mph100%30.57 "Hg0 mi
Weather by CustomWeather, © 2017

See weather overviewHow to use our weather pages